This is the latest recevied weather packets stored in our database for station/object K5IDL. If no packets are shown the sender has not sent any weather packets the latest 10 day(s).
| Time | Temp. | Humidity | Pressure | Rain* | Wind** | Luminosity | Snow |
|---|---|---|---|---|---|---|---|
| 1787965020 | 35° C | 39% | 1016 hPa | 0 mm | - | 2 W/m² | - |
| 1787964720 | 35° C | 38% | 1015.7 hPa | 0 mm | - | 2 W/m² | - |
| 1787964415 | 35.56° C | 38% | 1015.5 hPa | 0 mm | - | 4 W/m² | - |
| 1787964110 | 35.56° C | 37% | 1015.7 hPa | 0 mm | - | 5 W/m² | - |
| 1787963803 | 35.56° C | 36% | 1015.8 hPa | 0 mm | - | 7 W/m² | - |
| 1787963498 | 36.11° C | 35% | 1015.8 hPa | 0 mm | - | 8 W/m² | - |
| 1787963194 | 36.11° C | 35% | 1015.8 hPa | 0 mm | - | 9 W/m² | - |
| 1787962893 | 36.11° C | 35% | 1015.5 hPa | 0 mm | - | 10 W/m² | - |
| 1787962592 | 36.11° C | 35% | 1015.7 hPa | 0 mm | - | 12 W/m² | - |
| 1787962292 | 36.11° C | 34% | 1015.6 hPa | 0 mm | - | 13 W/m² | - |
| 1787961986 | 36.67° C | 34% | 1015.4 hPa | 0 mm | - | 15 W/m² | - |
| 1787961681 | 36.67° C | 34% | 1015.5 hPa | 0 mm | - | 16 W/m² | - |
| 1787961375 | 36.67° C | 33% | 1015.3 hPa | 0 mm | - | 17 W/m² | - |
| 1787961074 | 36.67° C | 34% | 1015.4 hPa | 0 mm | - | 18 W/m² | - |
| 1787960773 | 36.67° C | 34% | 1015.2 hPa | 0 mm | - | 19 W/m² | - |
| 1787960468 | 36.67° C | 33% | 1015.3 hPa | 0 mm | - | 26 W/m² | - |
| 1787960168 | 36.67° C | 33% | 1015.3 hPa | 0 mm | - | 21 W/m² | - |
| 1787959863 | 36.67° C | 34% | 1015.4 hPa | 0 mm | - | 55 W/m² | - |
| 1787959557 | 37.22° C | 34% | 1015.4 hPa | 0 mm | - | 22 W/m² | - |
| 1787959246 | 37.22° C | 33% | 1015.4 hPa | 0 mm | - | 24 W/m² | - |
| 1787958940 | 36.67° C | 34% | 1015.4 hPa | 0 mm | - | 23 W/m² | - |
| 1787958636 | 36.67° C | 35% | 1015.2 hPa | 0 mm | - | 26 W/m² | - |
| 1787958331 | 36.67° C | 34% | 1015.3 hPa | 0 mm | - | 23 W/m² | - |
| 1787958027 | 37.22° C | 34% | 1015.2 hPa | 0 mm | - | 23 W/m² | - |
| 1787957729 | 37.78° C | 33% | 1015.2 hPa | 0 mm | - | 25 W/m² | - |
* Rain latest hour (hover to see other rain measurements)
** Current wind speed in m/s (hover to see current wind gust speed)